Time,TemperatureF,DewpointF,PressureIn,WindDirection,WindDirectionDegrees,WindSpeedMPH,WindSpeedGustMPH,Humidity,HourlyPrecipIn,Conditions,Clouds,dailyrainin,SoftwareType,DateUTC
2014-12-25 00:02:00,40.7,39.1,29.72,West,264,4.0,6.0,94,0.00,,,0.00,Wunderground v.1.15,2014-12-25 08:02:00,
2014-12-25 00:12:00,40.7,38.8,29.72,West,277,3.0,7.0,93,0.00,,,0.00,Wunderground v.1.15,2014-12-25 08:12:00,
2014-12-25 00:22:00,40.8,38.9,29.73,NNW,346,2.0,6.0,93,0.00,,,0.00,Wunderground v.1.15,2014-12-25 08:22:00,
2014-12-25 00:32:00,41.1,39.0,29.73,North,360,4.0,5.0,92,0.00,,,0.00,Wunderground v.1.15,2014-12-25 08:32:00,
2014-12-25 00:42:00,41.0,38.6,29.73,NW,316,2.0,4.0,91,0.00,,,0.00,Wunderground v.1.15,2014-12-25 08:42:00,
2014-12-25 00:53:00,40.9,38.5,29.73,NNE,14,2.0,9.0,91,0.00,,,0.00,Wunderground v.1.15,2014-12-25 08:53:00,
2014-12-25 01:02:00,41.2,38.8,29.73,WNW,287,3.0,3.0,91,0.00,,,0.00,Wunderground v.1.15,2014-12-25 09:02:00,
2014-12-25 01:12:00,41.0,38.3,29.73,WNW,294,2.0,3.0,90,0.00,,,0.00,Wunderground v.1.15,2014-12-25 09:12:00,
2014-12-25 01:22:00,40.9,38.2,29.74,WSW,252,1.0,1.0,90,0.00,,,0.00,Wunderground v.1.15,2014-12-25 09:22:00,
2014-12-25 01:27:00,40.7,38.0,29.74,WSW,255,1.0,1.0,90,0.00,,,0.00,Wunderground v.1.15,2014-12-25 09:27:00,
2014-12-25 01:37:00,40.5,37.8,29.75,NNW,344,0.0,0.0,90,0.00,,,0.00,Wunderground v.1.15,2014-12-25 09:37:00,
2014-12-25 01:47:00,40.2,37.8,29.75,West,261,2.0,2.0,91,0.00,,,0.00,Wunderground v.1.15,2014-12-25 09:47:00,
2014-12-25 01:53:00,40.3,37.6,29.75,West,264,3.0,3.0,90,0.00,,,0.00,Wunderground v.1.15,2014-12-25 09:53:00,
2014-12-25 02:02:00,40.1,37.4,29.74,West,259,5.0,8.0,90,0.00,,,0.00,Wunderground v.1.15,2014-12-25 10:02:00,
2014-12-25 02:12:00,39.9,37.2,29.74,West,260,2.0,5.0,90,0.00,,,0.00,Wunderground v.1.15,2014-12-25 10:12:00,
2014-12-25 02:18:00,39.7,37.0,29.74,WSW,255,3.0,3.0,90,0.00,,,0.00,Wunderground v.1.15,2014-12-25 10:18:00,
2014-12-25 02:27:00,39.6,36.9,29.74,SW,231,4.0,7.0,90,0.00,,,0.00,Wunderground v.1.15,2014-12-25 10:27:00,
2014-12-25 02:37:00,39.7,37.0,29.74,WSW,246,5.0,6.0,90,0.00,,,0.00,Wunderground v.1.15,2014-12-25 10:37:00,
2014-12-25 02:48:00,39.8,36.8,29.74,WSW,258,6.0,6.0,89,0.00,,,0.00,Wunderground v.1.15,2014-12-25 10:48:00,
2014-12-25 02:53:00,40.0,36.7,29.74,West,279,5.0,6.0,88,0.00,,,0.00,Wunderground v.1.15,2014-12-25 10:53:00,
2014-12-25 03:03:00,40.0,36.4,29.74,West,259,4.0,5.0,87,0.00,,,0.00,Wunderground v.1.15,2014-12-25 11:03:00,
2014-12-25 03:12:00,40.3,36.1,29.74,NW,326,4.0,6.0,85,0.00,,,0.00,Wunderground v.1.15,2014-12-25 11:12:00,
2014-12-25 03:22:00,40.6,36.1,29.75,WSW,250,3.0,4.0,84,0.00,,,0.00,Wunderground v.1.15,2014-12-25 11:22:00,
2014-12-25 03:32:00,40.8,35.7,29.74,WSW,245,5.0,5.0,82,0.00,,,0.00,Wunderground v.1.15,2014-12-25 11:32:00,
2014-12-25 03:42:00,40.5,35.4,29.74,WSW,243,5.0,6.0,82,0.00,,,0.00,Wunderground v.1.15,2014-12-25 11:42:00,
2014-12-25 03:53:00,40.1,35.4,29.74,WSW,242,5.0,6.0,83,0.00,,,0.00,Wunderground v.1.15,2014-12-25 11:53:00,
2014-12-25 04:02:00,39.8,35.1,29.74,West,259,3.0,6.0,83,0.00,,,0.00,Wunderground v.1.15,2014-12-25 12:02:00,
2014-12-25 04:13:00,39.6,34.6,29.74,WSW,255,4.0,4.0,82,0.00,,,0.00,Wunderground v.1.15,2014-12-25 12:13:00,
2014-12-25 04:22:00,39.5,34.2,29.74,WSW,244,3.0,4.0,81,0.00,,,0.00,Wunderground v.1.15,2014-12-25 12:22:00,
2014-12-25 04:32:00,39.7,33.4,29.73,West,259,4.0,5.0,78,0.00,,,0.00,Wunderground v.1.15,2014-12-25 12:32:00,
2014-12-25 04:37:00,39.8,33.5,29.73,WSW,256,4.0,6.0,78,0.00,,,0.00,Wunderground v.1.15,2014-12-25 12:37:00,